Location: Brno
(49.2000°N, 16.6330°E)
Time: 21:52:33
(UTC+02:00)

Vanguard 3 - Pass Details

Date: 26 July 2021
Orbit: 510 x 3260 km, 33.3° (Epoch: 22 September)

Event Time Altitude Azimuth Distance (km) Brightness Sun altitude
Rises 20:54:03 0° 237° (WSW) 6,563 12.1 -2.6°
Reaches altitude 10° 20:58:22 10° 231° (SW) 5,798 11.7 -3.1°
Maximum altitude 21:15:37 45° 167° (SSE) 4,009 10.3 -5.4°
Drops below altitude 10° 21:32:16 10° 104° (ESE) 5,621 10.9 -7.5°
Sets 21:36:22 0° 98° (E) 6,358 11.2 -8.0°
